Back to catalog

COSMOS 1317 DEB

AliveHEO
NORAD 14736·DEBRIS·🇷🇺 Russia

Launched Oct 31, 1981 from Plesetsk Cosmodrome

Loading…

Next Passes (next 24 hours)

TLE

FreshSource: Space-Track

Epoch: Sep 14, 2026, 04:20 UTC

1 14736U 81108G   26257.18104617  .00000084  00000-0  00000-0 0  9991
2 14736  71.5756 113.1462 4610524 319.1957 263.3725  2.00251187235092

Track COSMOS 1317 DEB in real time with AllMySat

Download on the App Store